Regional Weather Roundup
Issued by NWS

Home | Current Version | Previous Version | Graphics & Text | Print | Product List | Glossary On
Versions: 1 2 3 4 5 6 7 8 9 10 11 12 13 14 15 16 17 18 19 20 21 22 23 24 25 26 27 28 29 30 31 32 33 34 35 36 37 38 39 40 41 42 43 44 45 46 47 48 49 50
514
ASUS45 KSLC 232310
RWRUT

UTAH REGIONAL WEATHER ROUNDUP
NATIONAL WEATHER SERVICE SALT LAKE CITY UT
500 PM MDT SAT SEP 23 2017

UTZ001>011-023>025-240000-

NORTHERN UTAH

CITY           SKY/WX    TMP DP  RH WIND       PRES   REMARKS
BRIGHAM CITY   CLOUDY    55  31  39 NW8       29.92S
HILL AFB       PTSUNNY   51  33  49 NW9       29.92S
LOGAN          PTSUNNY   58  34  40 N13       29.91F
OGDEN          CLOUDY    52  35  52 N9        29.92S
SALT LAKE CITY CLOUDY    54  35  48 NW12      29.92S
TOOELE VALLEY  CLOUDY    52  36  54 N7        29.94F
WENDOVER       CLOUDY    54  30  40 N7        29.97S
HEBER CITY     RAIN      43  36  75 CALM      29.92R
WEST JORDAN    CLOUDY    50  40  68 NW13G18   29.94R

$$

UTZ011>015-024>027-240000-

CENTRAL/NORTHEAST UTAH

CITY           SKY/WX    TMP DP  RH WIND       PRES   REMARKS
PROVO AIRPORT  LGT RAIN  48  40  73 NE5       29.93R
MOAB/CANYONLAN MOSUNNY   67  40  37 E18       29.71S
DELTA          CLOUDY    43  36  75 NW13G18   29.95R
PRICE          PTSUNNY   61  18  18 S14       29.77F
RICHFIELD      CLOUDY    43  37  81 SE3       29.97R HAZE
ROOSEVELT      SUNNY     63  36  36 E7        29.81F
VERNAL         CLOUDY    63  36  36 VRB3      29.80F

$$

UTZ013>016-019>022-027-240000-

SOUTHERN UTAH

CITY           SKY/WX    TMP DP  RH WIND       PRES   REMARKS
BRYCE CANYON   CLOUDY    44  30  57 NW16      29.93R
CEDAR CITY     PTSUNNY   48  32  53 NW7       29.90F
MILFORD        LGT RAIN  44  38  79 N14       29.94S
ST GEORGE      CLOUDY    64  30  27 NW13      29.84R
HANKSVILLE     MOSUNNY   72  18  13 SW3       29.72S
KANAB          CLOUDY    59  25  27 SW14      29.89R
BLANDING         N/A     65  36  34 SE14G22   29.85F

$$

REGIONAL REPORTS     COLORADO/ARIZONA

CITY           SKY/WX    TMP DP  RH WIND       PRES   REMARKS
CRAIG, CO      CLOUDY    53  40  61 E10       29.88F
GRAND JUNCTION LGT RAIN  50  49  96 N9        29.86R
RIFLE, CO      MOSUNNY   60  44  55 E13       29.84F
MONTROSE, CO   SUNNY     61  43  51 SE13      29.84F
CORTEZ, CO     MOSUNNY   63  41  44 VRB6      29.82F
PAGE, AZ       MOSUNNY   68  21  16 W13G23    29.74R
GRAND CANYON   CLOUDY    55  17  22 W9        29.88S
KINGMAN, AZ    CLOUDY    72  28  19 W8        29.84S
FLAGSTAFF, AZ  SUNNY     57  14  18 S25G32    29.90S

$$

REGIONAL REPORTS    NEVADA/IDAHO/WYOMING

CITY           SKY/WX    TMP DP  RH WIND       PRES   REMARKS
LAS VEGAS, NV  MOSUNNY   72  26  18 NW3G16    29.81F
ELY, NY        PTSUNNY   45  31  58 N15       29.97S
ELKO, NV       CLOUDY    52  24  33 N9        30.00S
POCATELLO, ID  MOSUNNY   54  36  50 VRB3      29.99F
BURLEY, ID     PTSUNNY   51  33  50 W6        30.00S
FORT BRIDGER,  CLOUDY    45  37  71 N6        29.96S
EVANSTON, WY   LGT RAIN  43  36  76 N5        29.94R
ROCK SPRINGS,  CLOUDY    45  40  82 NE13      29.93S
KEMMERER, WY     N/A     46  34  61 E3        29.94F

$$




USA.gov is the U.S. government's official web portal to all federal, state and local government web resources and services.